sat.trackr.live / text

‹ back to catalog

STARLINK-30492

NORAD 57921 · 2023-147J

PAYLOAD ACTIVE UNKNOWN

§ Identity

Operator
Country
US
Launch date
2023-09-24
Launch site
AFETR
Launch vehicle
Mass (kg)
RCS (m²)

Purposes: comms

External: N2YO · Heavens-Above · Gunter

§ Orbital elements

Epoch: 2026-05-24T14:02:46.681728Z

Period
94.27 min
Inclination
43.0039°
Eccentricity
0.0002118
Mean motion
15.27597478 rev/d
Perigee alt
481.5 km
Apogee alt
484.4 km
Semi-major
6,861.1 km
B*
1.0452e-4
RAAN
256.7286°
Arg perigee
268.0509°
Mean anomaly
92.0100°
Rev number
14,820

§ Raw data

STARLINK-304921 57921U 23147J   26144.58526252  .00002616  00000+0  10452-3 0  99922 57921  43.0039 256.7286 0002118 268.0509  92.0100 15.27597478148205

JSON: /api/v1/satellites/57921 · /tle

For live sub-satellite position, see the globe view (requires WebGL).

§ Visibility from observer

Set your observer location to see the next 7 days of passes ≥ 10°. The values pass through the URL so the page stays shareable.

No JS? Fill the form by hand. The geolocation button needs JavaScript.